User: anonymous   Login
Location: Holcomb Observatory
(44.4922°N, 73.1654°W)
Time: 22:26:25
(UTC-05:00)
Language:

Cosmos 1727 Rocket - Orbit

View from above orbital plane
View from above orbital plane
View from above satellite
View from above satellite

Ground track
Ground track

The orbit data is extracted from the following two-line orbital elements,

1 16511U 86008B   16039.21206824 -.00000041  00000-0 -57848-4 0  9993
2 16511  82.9420 226.9775 0023402 223.4799 258.0630 13.75810942508216
Epoch (UTC): 08 February 2016 05:05:22
Eccentricity: 0.0023402
inclination: 82.9420°
perigee height: 961 km
apogee height: 996 km
right ascension of ascending node: 226.9775°
argument of perigee: 223.4799°
revolutions per day: 13.75810942
mean anomaly at epoch: 258.0630°
orbit number at epoch: 50821

The dashed part of the orbit path shows where the satellite is in the earth's shadow,  

DLR